Southern Junior High School, Massachusetts, United States
Lat: 42.38N, Lon: 71.1W
Wx Zone: MAZ014
Local Info
Past Weather Observations for Today

NOTE: This archive is for the closest National Weather Service station to Southern Junior High School. Information may differ from the station used for current weather conditions.

Click here for Long-term Archive

Time Weather Temperature Dewpoint Humidity Pressure Winds Precip Visibility
21:54
Overcast
Light Rain
46°F / 8°C 43°F / 6°C 87% 29.71 in
(1006 mb)
N 12.7 mph
(N 20 kph)
0.03 in
(0.76 mm)
8SM
20:54
Overcast
Light Rain
45°F / 7°C 43°F / 6°C 93% 29.71 in
(1006 mb)
N 13.8 mph
(N 22 kph)
0.02 in
(0.51 mm)
7SM
19:54
Overcast
Light Rain
45°F / 7°C 43°F / 6°C 93% 29.71 in
(1006 mb)
NNE 17.3 mph
(NNE 28 kph)
0.02 in
(0.51 mm)
7SM
18:54
Overcast
Light Rain
45°F / 7°C 43°F / 6°C 93% 29.71 in
(1006 mb)
NE 15 mph
(NE 24 kph)
0.02 in
(0.51 mm)
6SM
18:51
Overcast
Light Rain
45°F / 7°C 43°F / 6°C 93% 29.71 in
(1006 mb)
NE 13.8 mph
(NE 22 kph)
0.02 in
(0.51 mm)
6SM
17:54
Overcast
Light Rain
45°F / 7°C 43°F / 6°C 93% 29.74 in
(1007 mb)
NE 16.1 mph
(NE 26 kph)
0.02 in
(0.51 mm)
2 1/2SM
16:54
Overcast
Light Rain
45°F / 7°C 43°F / 6°C 93% 29.74 in
(1007 mb)
NE 15 mph
(NE 24 kph)
0.00 in
(0.00 mm)
2 1/2SM
15:54
Overcast
Light Rain
45°F / 7°C 43°F / 6°C 93% 29.74 in
(1007 mb)
NE 16.1 mph
(NE 26 kph)
0.02 in
(0.51 mm)
2 1/2SM
15:30
Overcast
Light Rain
45°F / 7°C 43°F / 6°C 93% 29.74 in
(1007 mb)
NE 13.8 mph
(NE 22 kph)
0.01 in
(0.25 mm)
2 1/2SM
15:19
Overcast
Light Rain
45°F / 7°C 43°F / 6°C 93% 29.74 in
(1007 mb)
NE 13.8 mph
(NE 22 kph)
0.00 in
(0.00 mm)
2 1/2SM
15:14
Overcast
Light Rain
45°F / 7°C 43°F / 6°C 93% 29.74 in
(1007 mb)
NE 16.1 mph
(NE 26 kph)
0.00 in
(0.00 mm)
1 3/4SM
15:02
Overcast
Light Rain
45°F / 7°C 43°F / 6°C 93% 29.77 in
(1008 mb)
NE 16.1 mph
(NE 26 kph)
0.00 in
(0.00 mm)
2 1/2SM
14:54
Overcast
Light Rain
45°F / 7°C 43°F / 6°C 93% 29.77 in
(1008 mb)
NE 17.3 mph
(NE 28 kph)
0.00 in
(0.00 mm)
2 1/2SM
14:50
Overcast
Light Rain
45°F / 7°C 43°F / 6°C 93% 29.74 in
(1007 mb)
NE 16.1 mph
(NE 26 kph)
0.00 in
(0.00 mm)
2 1/2SM
12:54
Overcast
46°F / 8°C 43°F / 6°C 87% 29.77 in
(1008 mb)
NE 16.1 mph
(NE 26 kph)
0.00 in
(0.00 mm)
10SM
12:01
Overcast
46°F / 8°C 43°F / 6°C 87% 29.77 in
(1008 mb)
NE 18.4 mph
(NE 30 kph)
- 9SM
11:54
Overcast
46°F / 8°C 43°F / 6°C 87% 29.77 in
(1008 mb)
ENE 18.4 mph
(ENE 30 kph)
0.00 in
(0.00 mm)
10SM
10:54
Overcast
46°F / 8°C 43°F / 6°C 87% 29.77 in
(1008 mb)
NE 19.6 mph
(NE 32 kph)
- 10SM
09:54
Overcast
46°F / 8°C 43°F / 6°C 87% 29.8 in
(1009 mb)
NE 17.3 mph
(NE 28 kph)
- 10SM
08:54
Overcast
46°F / 8°C 43°F / 6°C 87% 29.77 in
(1008 mb)
NE 20.7 mph
(NE 33 kph)
0.00 in
(0.00 mm)
10SM
07:54
Overcast
45°F / 7°C 43°F / 6°C 93% 29.77 in
(1008 mb)
NE 18.4 mph
(NE 30 kph)
- 8SM
06:54
Overcast
45°F / 7°C 43°F / 6°C 93% 29.77 in
(1008 mb)
NE 18.4 mph
(NE 30 kph)
- 10SM
06:50
Overcast
45°F / 7°C 43°F / 6°C 93% 29.77 in
(1008 mb)
NE 16.1 mph
(NE 26 kph)
- 10SM
05:54
Overcast
Fog And Mist
45°F / 7°C 43°F / 6°C 93% 29.74 in
(1007 mb)
NE 16.1 mph
(NE 26 kph)
- 5SM
04:54
Overcast
45°F / 7°C 43°F / 6°C 93% 29.77 in
(1008 mb)
NNE 16.1 mph
(NNE 26 kph)
- 8SM
03:54
Overcast
Fog And Mist
45°F / 7°C 43°F / 6°C 93% 29.77 in
(1008 mb)
NE 15 mph
(NE 24 kph)
- 5SM
02:54
Overcast
45°F / 7°C 43°F / 6°C 93% 29.77 in
(1008 mb)
NNE 15 mph
(NNE 24 kph)
- 10SM
00:54
Overcast
45°F / 7°C 43°F / 6°C 93% 29.77 in
(1008 mb)
NE 19.6 mph
(NE 32 kph)
- 8SM
Time Weather Temperature Dewpoint Humidity Pressure Winds Precip Visibility


Weather for websites

WeatherForYou.com, LLC is not responsible for any damages or problems caused by this service. Current weather conditions are obtained from the closest station including government and personal stations which may have varying degrees of accuracy. Weather forecasts are derived from the NOAA NDFD. Like all things, this site belongs to Jesus Christ... He just trusts us to maintain it. If you have any questions or comments email webmaster@weatherforyou.com

Copyright © 2016, WeatherForYou.com LLC. All rights reserved.